Location: Amsterdam
(30.7274°N, 84.4357°W)
Time: 17:27:31
(UTC+00:00)

Transit 2A Rocket - Pass Details

Date: 25 February 2026
Orbit: 583 x 900 km, 66.7° (Epoch: 12 March)

Event Time Altitude Azimuth Distance (km) Brightness Sun altitude
Rises 05:35:27 0° 331° (NNW) 3,243 - -68.1°
Reaches altitude 10° 05:37:59 10° 328° (NNW) 2,260 - -68.1°
Maximum altitude 05:43:02 62° 248° (WSW) 778 - -68.3°
Drops below altitude 10° 05:47:37 10° 168° (SSE) 2,050 - -68.3°
Sets 05:49:49 0° 165° (SSE) 2,916 - -68.3°
